[[{"header":{"parameterUnit":"m.s-1","parameterCategory":1,"la1":30.2991,"la2":30.254,"lo1":-89.0895,"lo2":-89.0444,"dy":0.0017,"dx":0.0017,"nx":28,"ny":28,"refTime":"2024-12-05T09:00:00:Z","depth":0,"parameterNumber":2,"parameterNumberName":"U-component_of_WINDS"},"data":[0,0,0,0,0,0,0,0,0,0,0,0,0,0,0,0,0,0,0,0,0,0,0,0,0,0,0,0,0,0,0,0,0,0,0,0,0,0,0,0,0,0,0,0,0,0,0,0,0,0,0,0,0,0,0,0,0,0,-3.6541,-3.6542,0,-3.658,-3.6581,-3.6581,-3.645,-3.6446,-3.6442,-3.6438,-3.6479,-3.6484,-3.6489,0,0,0,0,0,0,0,0,0,0,0,0,0,-3.6352,-3.6356,-3.6541,-3.6542,-3.6542,-3.658,-3.6581,-3.6581,-3.645,-3.6446,-3.6441,-3.6436,-3.6478,-3.6483,-3.6489,0,0,0,0,0,0,0,0,0,0,0,0,0,-3.6417,-3.6357,-3.6541,-3.6481,-3.6476,-3.658,-3.6581,-3.6582,-3.6451,-3.6445,-3.6439,-3.6434,-3.6476,-3.6483,-3.649,-3.6654,0,0,-3.6512,-3.6515,0,0,0,0,0,0,0,0,-3.6413,-3.6424,-3.649,-3.6486,-3.648,-3.6504,-3.6529,-3.6606,-3.6453,-3.6461,-3.6438,-3.6431,-3.6492,-3.6498,-3.6518,-3.6656,-3.6657,-3.6513,-3.6517,-3.652,-3.6522,0,0,0,0,0,0,0,-3.6409,-3.6422,-3.6557,-3.6491,-3.6485,-3.6452,-3.6455,-3.6543,-3.651,-3.646,-3.645,-3.6457,-3.6489,-3.6512,-3.6518,-3.6658,-3.6512,-3.6519,-3.6523,-3.6526,-3.693,-3.6936,0,0,0,0,0,0,-3.6412,-3.6419,-3.6555,-3.6558,-3.6431,-3.6461,-3.6463,-3.6502,-3.6508,-3.6503,-3.6462,-3.645,-3.6502,-3.651,-3.6519,-3.6711,-3.652,-3.6527,-3.6531,-3.6924,-3.6932,-3.6939,0,0,0,0,0,0,-3.6409,-3.6426,-3.6554,-3.6486,-3.6499,-3.647,-3.6515,-3.6506,-3.6529,-3.651,-3.6503,-3.6492,-3.6498,-3.6509,-3.6621,-3.6711,-3.653,-3.6537,-3.6916,-3.6926,-3.6935,-3.7097,0,0,0,0,0,0,-3.6404,-3.6425,-3.6488,-3.6488,-3.6504,-3.6656,-3.652,-3.6511,-3.6542,-3.6528,-3.6536,-3.6532,-3.6494,-3.6611,-3.6628,-3.6717,-3.6542,-3.6908,-3.6921,-3.6932,-3.7083,-3.7111,-3.7134,0,0,0,0,0,-3.6398,-3.6532,-3.6491,-3.6509,-3.6581,-3.6661,-3.667,-3.6624,-3.655,-3.6612,-3.6599,-3.6531,-3.6698,-3.6624,-3.6642,-3.6735,-3.6902,-3.6917,-3.6931,-3.7072,-3.7105,-3.7133,0,0,0,0,0,0,-3.6544,-3.6531,-3.6486,-3.6624,-3.6645,-3.6639,-3.6716,-3.6661,-3.6703,-3.6688,-3.6628,-3.6631,-3.6754,-3.6755,-3.6672,-3.6893,-3.6787,-3.6806,-3.6888,-3.692,-3.6944,-3.6942,-3.6548,0,0,0,0,0,-3.6592,-3.6658,-3.6643,-3.6767,-3.6779,-3.6746,-3.6779,-3.6742,-3.676,-3.6769,-3.6764,-3.6785,-3.6841,-3.688,-3.6931,-3.7082,-3.7082,-3.7155,-3.718,-3.7201,-3.7218,-3.7297,-3.733,-3.6986,-3.6986,-3.6986,0,0,-3.6692,-3.6694,-3.6739,-3.6796,-3.6807,-3.6877,-3.6754,-3.6833,-3.6884,-3.678,-3.6886,-3.6883,-3.6902,-3.7034,-3.7092,-3.7039,-3.7313,-3.7219,-3.7236,-3.7242,-3.7316,-3.7348,-3.7377,-3.6996,-3.6994,-3.6992,0,0,-3.6911,-3.6919,-3.7022,-3.7036,-3.7054,-3.7031,-3.7056,-3.7058,-3.7052,-3.7156,-3.708,-3.7139,-3.7238,-3.7255,-3.7276,-3.75,-3.7439,-3.7518,-3.7651,-3.7729,-3.7756,-3.778,-3.786,-3.7889,-3.7535,-3.7535,-3.7536,0,-3.7034,-3.7136,-3.7083,-3.7167,-3.7194,-3.7102,-3.7206,-3.7222,-3.7257,-3.7277,-3.7217,-3.7338,-3.7345,-3.7479,-3.7533,-3.7554,-3.758,-3.7517,-3.7757,-3.778,-3.7801,-3.7877,-3.7907,-3.7545,-3.7544,-3.7543,-3.7542,0,-3.7286,-3.7358,-3.744,-3.7475,-3.751,-3.7605,-3.7565,-3.7608,-3.7566,-3.755,-3.7657,-3.7661,-3.7711,-3.7739,-3.77,-3.7868,-3.7834,-3.7767,-3.766,-3.7844,-3.7914,-3.7943,-3.7558,-3.7555,-3.7552,-3.755,0,0,-3.7601,-3.7603,-3.7634,-3.7649,-3.7661,-3.7716,-3.7805,-3.7853,-3.7891,-3.7917,-3.799,-3.8075,-3.8012,-3.8036,-3.7998,-3.8066,-3.8243,-3.7989,-3.7989,-3.8037,-3.8428,-3.848,-3.8514,-3.8202,-3.8207,-3.8211,-3.8426,0,-3.7816,-3.7969,-3.7923,-3.8077,-3.8142,-3.8054,-3.8132,-3.8148,-3.8134,-3.8187,-3.8171,-3.8233,-3.8144,-3.8158,-3.8222,-3.8208,-3.8321,-3.8192,-3.827,-3.8273,-3.8269,-3.8551,-3.8606,-3.8809,-3.8453,-3.8458,-3.8461,0,-3.8089,-3.8126,-3.8286,-3.8286,-3.8312,-3.8383,-3.8423,-3.8474,-3.849,-3.8475,-3.8502,-3.8449,-3.8535,-3.8427,-3.8546,-3.8459,-3.8488,-3.8486,-3.8493,-3.8499,-3.8379,-3.8566,-3.8872,-3.8903,-3.8504,-3.85,-3.8497,0,-3.8303,-3.8392,-3.8499,-3.8514,-3.8517,-3.8569,-3.8572,-3.8582,-3.8614,-3.8648,-3.8668,-3.8713,-3.8737,-3.8773,-3.8733,-3.8658,-3.8858,-3.8746,-3.8848,-3.8849,-3.8895,-3.8893,-3.9212,-3.8913,-3.8912,-3.8912,-3.8911,0,-3.8549,-3.8651,-3.8595,-3.8661,-3.8772,-3.8717,-3.8828,-3.8822,-3.8831,-3.8894,-3.8821,-3.8881,-3.8824,-3.888,-3.8849,-3.8952,-3.8963,-3.8954,-3.8944,-3.8961,-3.8962,-3.898,-3.8965,-3.892,-3.8918,-3.8916,-3.8915,0,-3.8808,-3.8774,-3.8885,-3.8879,-3.8879,-3.8961,-3.8955,-3.9016,-3.8995,-3.9076,-3.9092,-3.9061,-3.9122,-3.9085,-3.9148,-3.9126,-3.9261,-3.9232,-3.9256,-3.9249,-3.9352,-3.9344,-3.9695,-3.9738,-3.941,-3.9413,-3.9416,0,-3.8968,-3.9044,-3.9045,-3.9082,-3.909,-3.9151,-3.9182,-3.913,-3.9166,-3.9189,-3.9247,-3.9301,-3.9342,-3.9444,-3.9427,-3.9474,-3.9446,-3.9566,-3.9453,-3.9467,-3.9448,-3.9445,-3.9452,-3.9589,-3.9593,-3.9596,-3.9599,0,-3.9256,-3.9235,-3.9283,-3.9326,-3.9366,-3.9397,-3.9422,-3.9456,-3.9404,-3.9448,-3.9509,-3.9541,-3.9604,-3.9659,-3.9699,-3.9701,-3.9643,-3.9634,-3.966,-3.9678,-3.9689,-3.9685,-3.9319,-3.9627,-3.9624,-3.9622,-3.962,-3.9619,-3.947,-3.9534,-3.9544,-3.96,-3.9613,-3.9638,-3.9694,-3.968,-3.9731,-3.9778,-3.9744,-3.9817,-3.9828,-3.9875,-3.9886,-3.9941,-3.9893,-3.9931,-3.9941,-3.9951,-3.9966,-3.968,-3.9948,-3.9947,-3.9947,-3.9946,-3.9945,0,-3.9755,-3.9757,-3.9809,-3.9845,-3.9889,-3.9828,-3.9852,-3.9893,-3.9958,-3.9974,-4.0016,-4.0086,-4.0138,-4.0125,-4.0172,-4.0219,-4.0193,-4.0233,-4.023,-4.0231,-4.0006,-3.9979,-4.0254,-4.0254,-4.0254,-4.0253,-4.0253,-4.0253,-3.9908,-4.0012,-3.9992,-4.0101,-4.0101,-4.0172,-4.0191,-4.0213,-4.0226,-4.0307,-4.035,-4.0341,-4.0345,-4.0391,-4.0437,-4.0431,-4.0452,-4.0503,-4.0488,-4.0278,-4.0247,-4.0218,-4.0193,-4.0508,-4.0508,-4.0708,-4.071,-4.0711]},{"header":{"parameterUnit":"m.s-1","parameterCategory":1,"la1":30.2991,"la2":30.254,"lo1":-89.0895,"lo2":-89.0444,"dy":0.0017,"dx":0.0017,"nx":28,"ny":28,"refTime":"2024-12-05T09:00:00:Z","depth":0,"parameterNumber":3,"parameterNumberName":"V-component_of_WINDS"},"data":[0,0,0,0,0,0,0,0,0,0,0,0,0,0,0,0,0,0,0,0,0,0,0,0,0,0,0,0,0,0,0,0,0,0,0,0,0,0,0,0,0,0,0,0,0,0,0,0,0,0,0,0,0,0,0,0,0,0,-5.1493,-5.1493,0,-5.1561,-5.1562,-5.1563,-5.1484,-5.1482,-5.1479,-5.1476,-5.1542,-5.1547,-5.1551,0,0,0,0,0,0,0,0,0,0,0,0,0,-5.1288,-5.1293,-5.1492,-5.1493,-5.1494,-5.1561,-5.1562,-5.1563,-5.1485,-5.1481,-5.1478,-5.1475,-5.1541,-5.1546,-5.1551,0,0,0,0,0,0,0,0,0,0,0,0,0,-5.1369,-5.1294,-5.1492,-5.1464,-5.1462,-5.1561,-5.1562,-5.1563,-5.1486,-5.1481,-5.1477,-5.1473,-5.1539,-5.1546,-5.1552,-5.1682,0,0,-5.1573,-5.1576,0,0,0,0,0,0,0,0,-5.1365,-5.1377,-5.1467,-5.1466,-5.1464,-5.151,-5.1514,-5.1603,-5.1487,-5.1477,-5.1476,-5.1471,-5.1535,-5.1542,-5.1564,-5.1685,-5.1688,-5.1573,-5.1578,-5.158,-5.1582,0,0,0,0,0,0,0,-5.1359,-5.1373,-5.1519,-5.1468,-5.1466,-5.1445,-5.1452,-5.1531,-5.1529,-5.1477,-5.1472,-5.1481,-5.1533,-5.1558,-5.1565,-5.1689,-5.1573,-5.1579,-5.1583,-5.1586,-5.1917,-5.1921,0,0,0,0,0,0,-5.1357,-5.1369,-5.1517,-5.1522,-5.1402,-5.1453,-5.146,-5.1499,-5.1528,-5.1529,-5.1485,-5.1477,-5.1548,-5.1557,-5.1567,-5.1719,-5.158,-5.1587,-5.1591,-5.1912,-5.1918,-5.1923,0,0,0,0,0,0,-5.1353,-5.1371,-5.1515,-5.1444,-5.146,-5.1461,-5.1506,-5.1503,-5.1528,-5.1534,-5.1533,-5.1511,-5.1545,-5.1557,-5.1654,-5.172,-5.159,-5.1596,-5.1906,-5.1914,-5.192,-5.2026,0,0,0,0,0,0,-5.1348,-5.1371,-5.1421,-5.1446,-5.1465,-5.1602,-5.151,-5.1508,-5.154,-5.1531,-5.1558,-5.1558,-5.1543,-5.1644,-5.166,-5.1727,-5.1601,-5.19,-5.191,-5.1918,-5.2016,-5.2035,-5.2052,0,0,0,0,0,-5.1341,-5.1448,-5.1424,-5.1443,-5.1528,-5.1606,-5.1617,-5.1598,-5.1546,-5.1596,-5.1599,-5.1557,-5.171,-5.1654,-5.1672,-5.1742,-5.1896,-5.1907,-5.1917,-5.2008,-5.2032,-5.2051,0,0,0,0,0,0,-5.1431,-5.1451,-5.1425,-5.1543,-5.1574,-5.1593,-5.1655,-5.1624,-5.1669,-5.1658,-5.1631,-5.1638,-5.174,-5.175,-5.1688,-5.1868,-5.1794,-5.1809,-5.1857,-5.188,-5.1897,-5.1892,-5.1607,0,0,0,0,0,-5.1464,-5.1528,-5.1541,-5.1644,-5.1661,-5.1656,-5.1689,-5.1671,-5.1701,-5.1713,-5.1724,-5.1754,-5.1808,-5.1844,-5.1895,-5.2017,-5.2021,-5.2074,-5.2092,-5.2106,-5.2119,-5.2182,-5.2205,-5.1958,-5.1958,-5.1957,0,0,-5.1534,-5.1553,-5.1594,-5.1662,-5.1684,-5.1748,-5.1667,-5.1739,-5.1785,-5.1724,-5.1815,-5.1824,-5.1855,-5.1964,-5.2013,-5.1976,-5.2188,-5.212,-5.2131,-5.2136,-5.2195,-5.2219,-5.224,-5.1965,-5.1964,-5.1963,0,0,-5.1694,-5.1716,-5.1803,-5.1826,-5.186,-5.1856,-5.1877,-5.1901,-5.1904,-5.1996,-5.1951,-5.2004,-5.2099,-5.2123,-5.2147,-5.2314,-5.2276,-5.2331,-5.2424,-5.2486,-5.2505,-5.2522,-5.258,-5.2601,-5.2343,-5.2344,-5.2344,0,-5.1777,-5.1873,-5.1852,-5.1927,-5.1957,-5.1905,-5.1991,-5.2014,-5.2063,-5.2084,-5.2042,-5.2159,-5.2176,-5.2289,-5.233,-5.2351,-5.2373,-5.2327,-5.2504,-5.2521,-5.2537,-5.2592,-5.2614,-5.235,-5.2349,-5.2349,-5.2348,0,-5.1972,-5.2039,-5.2105,-5.2154,-5.2191,-5.2272,-5.226,-5.2301,-5.2279,-5.2279,-5.2371,-5.239,-5.2442,-5.2467,-5.2448,-5.2577,-5.2553,-5.2509,-5.2434,-5.2567,-5.2618,-5.2639,-5.2359,-5.2357,-5.2355,-5.2353,0,0,-5.2192,-5.2226,-5.2251,-5.2271,-5.2304,-5.2354,-5.2431,-5.2483,-5.2517,-5.2552,-5.2614,-5.2695,-5.2653,-5.2681,-5.2662,-5.2717,-5.2845,-5.2665,-5.2665,-5.2697,-5.2987,-5.302,-5.3045,-5.2821,-5.2824,-5.2828,-5.2984,0,-5.2351,-5.2486,-5.2468,-5.2596,-5.2657,-5.2607,-5.2674,-5.27,-5.2701,-5.275,-5.275,-5.2808,-5.2749,-5.2765,-5.2817,-5.2819,-5.2903,-5.2807,-5.2876,-5.2879,-5.287,-5.3071,-5.3107,-5.3254,-5.3004,-5.3007,-5.301,0,-5.2556,-5.2598,-5.2733,-5.2754,-5.2779,-5.2839,-5.2884,-5.2933,-5.2961,-5.2957,-5.2988,-5.2959,-5.3033,-5.2958,-5.3059,-5.2994,-5.3021,-5.3026,-5.3031,-5.3036,-5.2952,-5.3081,-5.33,-5.3322,-5.3041,-5.3039,-5.3036,0,-5.2701,-5.2791,-5.2883,-5.2902,-5.293,-5.2973,-5.2986,-5.3009,-5.3041,-5.308,-5.31,-5.3147,-5.3172,-5.3208,-5.3192,-5.3139,-5.3295,-5.3219,-5.3293,-5.3293,-5.3328,-5.3326,-5.3553,-5.3347,-5.3346,-5.3346,-5.3346,0,-5.288,-5.2965,-5.2948,-5.3005,-5.3097,-5.3074,-5.3165,-5.3171,-5.3192,-5.3247,-5.3207,-5.3259,-5.3235,-5.3285,-5.3273,-5.3357,-5.3369,-5.3367,-5.3363,-5.337,-5.3371,-5.3387,-5.3376,-5.3352,-5.335,-5.3349,-5.3348,0,-5.3058,-5.3051,-5.3147,-5.3165,-5.3172,-5.3238,-5.3252,-5.3304,-5.3301,-5.3372,-5.3387,-5.3382,-5.3439,-5.3426,-5.3488,-5.348,-5.3585,-5.3568,-5.3577,-5.3572,-5.3646,-5.3639,-5.3892,-5.3923,-5.3698,-5.37,-5.3702,0,-5.3173,-5.3236,-5.3261,-5.3296,-5.3312,-5.3369,-5.3401,-5.338,-5.3415,-5.3449,-5.3497,-5.355,-5.3591,-5.3683,-5.3684,-5.3731,-5.3714,-5.38,-5.3721,-5.3726,-5.3714,-5.371,-5.3715,-5.3815,-5.3818,-5.382,-5.3821,0,-5.3377,-5.337,-5.3419,-5.3466,-5.3506,-5.3542,-5.3573,-5.3603,-5.3585,-5.3626,-5.3683,-5.3716,-5.3778,-5.3831,-5.3874,-5.3885,-5.385,-5.3846,-5.3865,-5.3874,-5.3875,-5.3874,-5.3618,-5.384,-5.3839,-5.3837,-5.3836,-5.3835,-5.3526,-5.3579,-5.3605,-5.3659,-5.3681,-5.3711,-5.376,-5.3764,-5.3812,-5.3862,-5.3846,-5.3912,-5.3935,-5.3989,-5.4005,-5.4054,-5.4022,-5.4051,-5.4057,-5.4065,-5.4073,-5.3868,-5.4062,-5.4062,-5.4061,-5.4061,-5.406,0,-5.3727,-5.374,-5.3791,-5.3837,-5.3879,-5.3844,-5.3876,-5.3914,-5.3972,-5.3998,-5.4039,-5.4104,-5.4155,-5.4159,-5.4206,-5.4244,-5.4229,-5.4257,-5.4254,-5.4257,-5.41,-5.4078,-5.4269,-5.4269,-5.4269,-5.4269,-5.4268,-5.4268,-5.3836,-5.3924,-5.392,-5.4017,-5.4029,-5.4094,-5.4115,-5.4142,-5.4162,-5.4237,-5.4279,-5.4282,-5.4298,-5.4345,-5.4389,-5.4389,-5.4407,-5.4441,-5.4435,-5.4289,-5.4268,-5.4248,-5.4227,-5.4446,-5.4446,-5.4587,-5.4588,-5.4589]}]]